Weather History for Laurinburg-Maxton, NC

Change the Weather History Date:

Sunday, December 22, 2013

  Actual Average (KLBT) Record (KLBT)
Temperature  
Mean Temperature 72 °F 45 °F  
Max Temperature 78 °F 55 °F 81 °F (2013)
Min Temperature 66 °F 35 °F 21 °F (2005)
Degree Days  
Heating Degree Days 0 20  
Month to date heating degree days 396  
Since 1 July heating degree days 862  
Cooling Degree Days 7 0  
Month to date cooling degree days 0  
Year to date cooling degree days 1907  
Growing Degree Days 22 (Base 50)    
Moisture  
Dew Point 65 °F    
Average Humidity 86    
Maximum Humidity 97    
Minimum Humidity 60    
Precipitation  
Precipitation 0.00 in 0.09 in 1.02 in (2006)
Month to date precipitation 2.21  
Year to date precipitation 42.84  
Sea Level Pressure  
Sea Level Pressure 30.09 in    
Wind  
Wind Speed 11 mph (SSW)    
Max Wind Speed 20 mph    
Max Gust Speed 28 mph    
Visibility 10 miles    
Events      
T = Trace of Precipitation, MM = Missing Value Source: NWS Daily Summary

Daily Weather History Graph

Daily Weather History Graph

Search for Another Location

Airport:

Trip Planner

Search our weather history database for the weather conditions in past years. The results will help you decide how hot, cold, wet, or windy it might be!

Date:

Astronomy

Dec. 22, 2013 Rise Set
Actual Time 7:21 AM EST 5:10 PM EST
Civil Twilight 6:53 AM EST 5:38 PM EST
Nautical Twilight 6:21 AM EST 6:10 PM EST
Astronomical Twilight 5:51 AM EST 6:41 PM EST
Moon 10:10 PM EST (12/22) 10:27 AM EST (12/22)
Length of Visible Light 10h 45m
Length of Day
9h 49m
Waning Gibbous, 77% of the Moon is Illuminated
Dec 22
Waning Gibbous
Dec 25
Last Quarter
Jan 1
New
Jan 7
First Quarter
Jan 15
Full

Hourly Weather History & Observations

Time (EST) Temp. Dew Point Humidity Pressure Visibility Wind Dir Wind Speed Gust Speed Precip Events Conditions
12:28 AM 66.0 °F 64.9 °F 96% 30.10 in 10.0 mi SSW 10.4 mph - N/A   Overcast
12:52 AM 66.0 °F 64.9 °F 96% 30.08 in 10.0 mi South 9.2 mph - N/A   Overcast
1:09 AM 66.0 °F 64.9 °F 96% 30.09 in 10.0 mi South 12.7 mph - N/A   Overcast
1:52 AM 66.0 °F 64.9 °F 96% 30.08 in 10.0 mi SSW 9.2 mph - N/A   Overcast
2:18 AM 66.0 °F 64.9 °F 96% 30.08 in 10.0 mi SSW 8.1 mph - N/A   Overcast
2:25 AM 66.0 °F 64.9 °F 96% 30.08 in 10.0 mi SSW 9.2 mph - N/A   Overcast
2:52 AM 66.0 °F 64.9 °F 96% 30.08 in 10.0 mi SSW 10.4 mph - N/A   Overcast
3:17 AM 66.0 °F 64.9 °F 96% 30.08 in 10.0 mi SSW 11.5 mph - N/A   Overcast
3:52 AM 66.9 °F 64.9 °F 93% 30.08 in 10.0 mi SSW 9.2 mph - N/A   Overcast
4:31 AM 66.0 °F 64.9 °F 96% 30.07 in 10.0 mi South 11.5 mph - N/A   Overcast
4:52 AM 66.0 °F 64.9 °F 96% 30.07 in 10.0 mi SSW 10.4 mph - N/A   Overcast
5:52 AM 66.9 °F 64.9 °F 93% 30.08 in 10.0 mi SSW 10.4 mph - N/A   Overcast
6:05 AM 66.9 °F 64.9 °F 93% 30.08 in 10.0 mi SSW 10.4 mph - N/A   Overcast
6:52 AM 66.9 °F 64.9 °F 93% 30.08 in 10.0 mi SSW 9.2 mph - N/A   Overcast
7:12 AM 66.9 °F 66.0 °F 97% 30.09 in 10.0 mi SSW 11.5 mph - N/A   Overcast
7:52 AM 66.9 °F 66.0 °F 97% 30.09 in 5.0 mi South 11.5 mph - N/A   Overcast
8:05 AM 68.0 °F 66.0 °F 93% 30.09 in 10.0 mi South 11.5 mph - N/A   Overcast
8:28 AM 68.0 °F 66.0 °F 93% 30.10 in 10.0 mi SSW 10.4 mph - N/A   Overcast
8:39 AM 68.0 °F 66.0 °F 93% 30.09 in 10.0 mi SSW 13.8 mph - N/A   Overcast
8:50 AM 69.8 °F 66.2 °F 88% 30.09 in 10.0 mi SSW 13.8 mph - N/A   Overcast
8:52 AM 69.1 °F 66.9 °F 93% 30.09 in 10.0 mi SSW 13.8 mph - N/A   Overcast
9:52 AM 71.1 °F 66.9 °F 87% 30.11 in 10.0 mi SSW 13.8 mph 21.9 mph N/A   Overcast
10:04 AM 71.1 °F 66.0 °F 84% 30.13 in 10.0 mi SW 16.1 mph 25.3 mph N/A   Overcast
10:52 AM 73.0 °F 66.0 °F 79% 30.13 in 10.0 mi SW 13.8 mph - N/A   Overcast
11:41 AM 75.9 °F 66.0 °F 71% 30.12 in 10.0 mi SW 12.7 mph - N/A   Mostly Cloudy
11:52 AM 75.9 °F 64.9 °F 69% 30.11 in 10.0 mi SW 16.1 mph - N/A   Mostly Cloudy
12:11 PM 75.9 °F 64.9 °F 69% 30.11 in 10.0 mi SW 16.1 mph - N/A   Mostly Cloudy
12:22 PM 77.0 °F 64.9 °F 66% 30.10 in 10.0 mi SW 17.3 mph 24.2 mph N/A   Mostly Cloudy
12:52 PM 77.0 °F 64.0 °F 64% 30.08 in 10.0 mi SW 19.6 mph 27.6 mph N/A   Scattered Clouds
1:52 PM 78.1 °F 64.0 °F 62% 30.06 in 10.0 mi SSW 19.6 mph 25.3 mph N/A   Scattered Clouds
2:52 PM 78.1 °F 63.0 °F 60% 30.06 in 10.0 mi SW 13.8 mph - N/A   Clear
3:52 PM 77.0 °F 63.0 °F 62% 30.05 in 10.0 mi SSW 9.2 mph - N/A   Scattered Clouds
4:52 PM 73.9 °F 64.0 °F 71% 30.05 in 10.0 mi SSW 6.9 mph - N/A   Clear
5:52 PM 70.0 °F 63.0 °F 78% 30.07 in 10.0 mi SSW 4.6 mph - N/A   Scattered Clouds
6:52 PM 69.1 °F 63.0 °F 81% 30.09 in 10.0 mi South 9.2 mph - N/A   Partly Cloudy
7:52 PM 68.0 °F 63.0 °F 84% 30.10 in 10.0 mi South 5.8 mph - N/A   Mostly Cloudy
8:52 PM 66.0 °F 63.0 °F 90% 30.09 in 10.0 mi South 5.8 mph - N/A   Mostly Cloudy
9:52 PM 66.0 °F 63.0 °F 90% 30.10 in 10.0 mi SSW 4.6 mph - N/A   Mostly Cloudy
10:52 PM 66.0 °F 64.0 °F 93% 30.09 in 10.0 mi South 5.8 mph - N/A   Overcast
11:52 PM 66.9 °F 64.9 °F 93% 30.09 in 10.0 mi SSW 9.2 mph - N/A   Overcast